Location: Lewisville
(33.0462°N, 96.9942°W)
Time: 10:29:24
(UTC-05:00)

Envisat - Visible Passes

Search period start: 18 May 2021 00:00
Search period end: 28 May 2021 00:00
Orbit: 764 x 766 km, 98.1° (Epoch: 18 May)

Date Brightness Start Highest point End Pass type
(mag) Time Alt. Az. Time Alt. Az. Time Alt. Az.
19 May 5.8 05:44:01 10° ENE 05:46:58 15° E 05:49:54 10° SE visible
22 May 6.0 05:33:46 10° ENE 05:35:24 11° E 05:37:02 10° ESE visible
24 May 5.6 05:57:05 10° NE 06:00:59 22° E 06:04:52 10° SE visible
27 May 5.7 05:46:12 10° NE 05:49:26 17° E 05:52:40 10° SE visible
